Redstone, Alberta

1:03 PM MST on December 09, 2016 (GMT -0700)
Bow Valley

Weather History for CWXA - January, 2013

Change the Weather History Date:

Monday, January 7, 2013

  Actual Average Record
Temperature  
Mean Temperature 27 °F -  
Max Temperature 35 °F - - ()
Min Temperature 19 °F - - ()
Degree Days  
Heating Degree Days 38    
Moisture  
Dew Point 14 °F    
Average Humidity 53    
Maximum Humidity 74    
Minimum Humidity 27    
Precipitation  
Precipitation 0.00 in - - ()
Sea Level Pressure  
Sea Level Pressure 29.65 in    
Wind  
Wind Speed 8 mph ()    
Max Wind Speed 16 mph    
Max Gust Speed 26 mph    
T = Trace of Precipitation, MM = Missing Value Source: Averaged Metar Reports

Daily Weather History Graph

Daily Weather History Graph

Search for Another Location

Airport or City:

Trip Planner

Search our weather history database for the weather conditions in past years. The results will help you decide how hot, cold, wet, or windy it might be!

Date:

Astronomy

Jan. 07, 2013 Rise Set
Actual Time 8:42 AM MST 4:51 PM MST
Civil Twilight 8:03 AM MST 5:30 PM MST
Nautical Twilight 7:21 AM MST 6:12 PM MST
Astronomical Twilight 6:41 AM MST 6:52 PM MST
Moon 4:03 AM MST (1/7) 1:11 PM MST (1/7)
Length of Visible Light 9h 27m
Length of Day
8h 09m
Waning Crescent, 22% of the Moon is Illuminated
Jan 7
Waning Crescent
Jan 11
New
Jan 18
First Quarter
Jan 26
Full
Feb 3
Last Quarter

Hourly Weather History & Observations

Time (MST) Temp. Windchill Dew Point Humidity Pressure Visibility Wind Dir Wind Speed Gust Speed Precip Events Conditions
12:00 AM 24.1 °F 14.4 °F 15.8 °F 71% 29.84 in - WSW 9.2 mph - N/A   Unknown
1:00 AM 24.1 °F 13.1 °F 15.8 °F 71% 29.84 in - WSW 11.5 mph 19.6 mph N/A   Unknown
2:00 AM 24.1 °F 11.5 °F 16.9 °F 74% 29.83 in - WSW 15.0 mph 26.5 mph N/A   Unknown
3:00 AM 24.1 °F 13.1 °F 15.6 °F 70% 29.85 in - WSW 11.5 mph 19.6 mph N/A   Unknown
4:00 AM 23.9 °F 16.8 °F 14.5 °F 67% 29.86 in - SW 5.8 mph - N/A   Unknown
5:00 AM 20 °F - 10 °F 52% 29.86 in - WSW 4.6 mph - -  
5:00 AM 20.1 °F 13.6 °F 9.9 °F 64% 29.86 in - WSW 4.6 mph - N/A   Unknown
6:00 AM 25.0 °F 16.3 °F 10.8 °F 55% 29.81 in - WSW 8.1 mph 18.4 mph N/A   Unknown
7:00 AM 24.3 °F 15.4 °F 10.6 °F 56% 29.79 in - WSW 8.1 mph - N/A   Unknown
8:00 AM 24.4 °F 18.6 °F 10.8 °F 56% 29.76 in - WSW 4.6 mph - N/A   Unknown
9:00 AM 24.1 °F 16.0 °F 12.0 °F 60% 29.73 in - WSW 6.9 mph - N/A   Unknown
10:00 AM 25.2 °F 18.3 °F 12.6 °F 59% 29.69 in - SW 5.8 mph 21.9 mph N/A   Unknown
11:00 AM 26 °F - 13 °F 44% 29.65 in - WSW 13.8 mph - -  
11:00 AM 25.9 °F 14.3 °F 12.9 °F 58% 29.65 in - WSW 13.8 mph 23.0 mph N/A   Unknown
12:00 PM 29.3 °F 21.5 °F 13.3 °F 51% 29.59 in - SW 8.1 mph 18.4 mph N/A   Unknown
1:00 PM 29.8 °F 18.4 °F 14.4 °F 53% 29.53 in - WSW 16.1 mph 26.5 mph N/A   Unknown
2:00 PM 31.1 °F 20.5 °F 15.8 °F 53% 29.48 in - West 15.0 mph 25.3 mph N/A   Unknown
3:00 PM 32.9 °F 22.8 °F 16.7 °F 51% 29.46 in - West 15.0 mph 24.2 mph N/A   Unknown
4:00 PM 34.7 °F 28.1 °F 14.9 °F 44% 29.46 in - SW 8.1 mph - N/A   Unknown
5:00 PM 35 °F - 14 °F 27% 29.46 in - WSW 8.1 mph - -  
5:00 PM 34.5 °F 27.9 °F 13.6 °F 42% 29.46 in - WSW 8.1 mph - N/A   Unknown
6:00 PM 35.2 °F 29.5 °F 13.1 °F 40% 29.47 in - WSW 6.9 mph 18.4 mph N/A   Unknown
7:00 PM 35.4 °F 27.8 °F 12.6 °F 39% 29.48 in - West 10.4 mph 20.7 mph N/A   Unknown
8:00 PM 35.2 °F 28.1 °F 13.1 °F 40% 29.51 in - WSW 9.2 mph - N/A   Unknown
9:00 PM 33.4 °F 28.1 °F 14.7 °F 46% 29.51 in - WSW 5.8 mph - N/A   Unknown
10:00 PM 31.6 °F 26.0 °F 14.9 °F 50% 29.53 in - WSW 5.8 mph - N/A   Unknown
11:00 PM 33 °F - 16 °F 35%  in - WSW 5.8 mph - -  
11:00 PM 32.9 °F 27.5 °F 15.8 °F 49% 29.53 in - WSW 5.8 mph - N/A   Unknown